Location: Peach Mountain Observatory
(42.3967°N, 83.9367°W)
Time: 21:35:05
(UTC-05:00)

S-56A Canister/Altair - Pass Details

Date: 25 January 2020
Orbit: 633 x 2500 km, 38.9° (Epoch: 26 February)

Event Time Altitude Azimuth Distance (km) Brightness Sun altitude
Rises 00:09:19 0° 271° (W) 3,191 - -65.3°
Reaches altitude 10° 00:11:55 10° 266° (W) 2,135 - -65.5°
Maximum altitude 00:16:26 48° 191° (SSW) 826 - -65.8°
Drops below altitude 10° 00:20:44 10° 117° (ESE) 2,038 - -66.0°
Sets 00:23:11 0° 112° (ESE) 3,029 - -66.1°
